Погода в Олекминске

Погода в Олекминске : погода сейчас, прогноз погоды и архив. Всё, что Вы хотите узнать о погоде в Олекминске!

Хотите узнать прогноз погоды в Олекминске? Тогда Вам сюда: Погода в Олекминске

Поиск расширенной информации на нашем сайте:

Другие новости

Новости СМИ2

Главная страница сайта

Новости сайта

03.07.2017

Напоминаем, что на нашем специализированном сайте Метеоцентр.Азия вы можете получить высокодетализированные автоматические прогнозы погоды по пунктам России, СНГ и мира в авиационном формате (включающие направление и скорость ветра, видимость, явления погоды, количество и форму облачности, нижнюю и верхнюю границу облачности).

Рекомендуем: ремонт iphone 3gs

Погода в Олекминске - сегодня

Время (UTC), дата Ветер
(°,м/с) 
Видим.   Явления Облачность Т
(°С)
Тd
(°С)
f(%) Тe
(°С)
Pmin
(гПа)
dP
(гПа)
Po
(мм)
O2
(г/м3)
Тmin Tmax R s Состояние
почвы
09 17.06.18 010 (С) 20000 м  {ливн. осадки}  10/4 300 м кучево-дожд., средняя 
[Cb cap|Ac trans]
+14.4 +13 91 +22  1002.3  0.1  732  277           
15 17.06.18 250 (З) 20000 м    10/4 1000 м средняя, верхняя 
[Cu med, cong|Ac trans|Ci fib]
+11.4 +10 91 +13  1002.8  -0.2  732  281           
18 17.06.18 нст () 10 км  туман поземный  10/3 1000 м верхняя 
[Sc|Ci fib]
+7 +6.6 97 +8  1003.7  0.5  732  286           
21 17.06.18 тихо ()   20000 м    10/0 средняя, верхняя 
[Ac trans|Ci fib]
+10.4 +8.4 87 +10  1004.4  0.9  733  283           
03 18.06.18 240 (ЮЗ) 20000 м    10/4 600 м кучево-дожд., средняя, верхняя 
[Cb cap|Ac trans|Ci fib]
+18.4 +8.4 52 +19  1003.2  -0.8  733  275           
06 18.06.18 960 () 4000 м  гроза, ливневой дождь  10/5 600 м кучево-дожд., средняя, верхняя 
[Cb cap|Ac trans|Ci fib]
+13.8 +11.2 84 +18  1004.6  0.9  733  279           
09 18.06.18 нст () 10 км  {гроза, ливн. осадки}  10/5 600 м кучево-дожд., средняя, верхняя 
[Cb cap|Ac trans|Ci fib]
+16.6 +11.4 71 +22  1003.4  -0.7  733  276           
15 18.06.18 240 (ЮЗ) 4000 м  дымка  10/3 600 м средняя, верхняя 
[Sc|Ac trans|Ci fib]
+8.6 +8.2 97 +9  1005.9  -0.6  734  285           
18 18.06.18 040 (СВ) 2000 м  дымка  10/0 средняя, верхняя 
[Ac trans|Ci fib]
+7.3 +7.3 100 +7  1005.9  734  287           
21 18.06.18 040 (СВ) 0500 м  туман  ?/?  
+7.3 +7.3 100 +7  1006.2  0.3  734  287           
03 19.06.18 280 (З) 20000 м    10/0 верхняя 
[Ci fib]
+17.9 +13.5 75 +26  1004.8  -0.8  734  275           
06 19.06.18 240 (ЮЗ) 20000 м    10/4 1000 м верхняя 
[Cu med, cong|Ci fib]
+22.8 +11 47 +26  1003.2  -1  733  271           
09 19.06.18 090 (В) 20000 м  {ливн. осадки}  10/5 1000 м кучево-дожд., средняя, верхняя 
[Cb cap|Ac trans|Ci fib]
+22.7 +7.4 37 +23  1002.2  -1.1  732  271           
15 19.06.18 240 (ЮЗ) 20000 м  в посл. час ливневой дождь  10/6 600 м кучево-дожд., средняя 
[Cb cap|Ac trans]
+13.8 +12.3 91 +19  1002.9  -0.2  732  278           
18 19.06.18 тихо ()   4000 м  дымка{ливн. осадки}  10/3 600 м средняя, верхняя 
[Sc|Ac trans|Cs]
+11 +10.4 96 +13  1002.6  -0.5  732  281           
21 19.06.18 тихо ()   0500 м  туман  ?/?  
+12 +12 100 +16  1002.6  732  280           
03 20.06.18 230 (ЮЗ) 20000 м    10/3 1000 м верхняя 
[Cu hum|Ci fib]
+21.4 +13.2 60 +28  1000.3  -1.1  731  270           
06 20.06.18 250 (З) 20000 м  гроза, ливневой дождь  10/6 600 м кучево-дожд., средняя, верхняя 
[Cb cap|Ac trans|Ci fib]
+24.9 +10.8 41 +28  997.6  -2.4  729  267           
09 20.06.18 090 (В) 20000 м  гроза, ливневой дождь  10/6 600 м кучево-дожд., средняя, верхняя 
[Cb cap|Ac trans|Ci fib]
+15.9 +14.7 93 +26  998.1  -0.3  729  274           
15 20.06.18 240 (ЮЗ) 10 км    10/5 600 м кучево-дожд., средняя, верхняя 
[Cb cap|Ac trans|Ci fib]
+13.1 +12.5 96 +19  999.7  730  278           
18 20.06.18 240 (ЮЗ) 0500 м  туман  ?/?  
+12 +12 100 +18  998.8  -0.9  729  279           
21 20.06.18 240 (ЮЗ) 0500 м    ?/?  
[Frnb|Ac lent|Ci sp]
+12.5 +12.5 100 +19  998.9  0.1  729  278           
03 21.06.18 340 (С) 20000 м    10/8 600 м кучево-дожд., верхняя 
[Cb cap|Ci fib]
+16.8 +8.6 58 +17  998.3  -0.2  729  275           
06 21.06.18 340 (С) 20000 м  в посл. час ливневой дождь  10/8 600 м кучево-дожд., верхняя 
[Cb cap|Ci fib]
+15.4 +9.9 70 +17  999.3  0.7  729  276           
09 21.06.18 020 (С) 20000 м  в посл. час гроза{ливн. осадки}  10/6 600 м кучево-дожд., средняя, верхняя 
[Cb cap|Ac trans|Ci fib]
+16.7 +10.7 68 +20  999.6  0.5  730  275           
Время (UTC), дата Ветер
(°,м/с) 
Видим.   Явления Облачность Т
(°С)
Тd
(°С)
f(%) Тe
(°С)
Pmin
(гПа)
dP
(гПа)
Po
(мм)
O2
(г/м3)
Тmin Tmax R s Состояние
почвы

Для получения пояснительной информации подведите курсор к названию столбца.

ПОГОДА в Олекминске - архив

Всё, что Вы хотите узнать о погоде в Олекминске - удобно и подробно!

Выберите нужную дату (начиная с 1 января 2015* года) и нажмите кнопку "Найти".
Будут отображены архивные сводки погоды по пункту Олекминск, начиная с указанной даты.


Отображать данные в формате CSV (для использования в таблицах Excel)


Внимание! Наш архив погоды предназначен исключительно для личного некоммерческого использования в познавательных целях. Если Вам необходимы официальные справки о состоянии погоды (для производственных, юридических, коммерческих и т.п. целей), обращайтесь в органы Росгидромета.

*Примечание: данная дата относится к архиву по метеостанциям СССР (Россия, СНГ, Балтия).
Архив по метеостанциям Зарубежной Европы и Азии (кроме Китая) хранится 10 дней, по другим регионам земного шара (Китай, Африка, Америка, Австралия, Океания) - 1 день.

Олекминск - район местоположения метеостанции


Название, широта, долгота, высота метеостанции:
Олекминск 60.4°ш. 120.4°д. 226 м над ур. моря [Российская Федерация]

Дополнительная информация

В oтличие oт бoльшинства пoгoдных сайтoв мы публикуем пoдрoбную метеoинфoрмацию в детальнoм прoфессиoнальнoм фoрмате.

Характеристики температуры и влажнoсти вoздуха измеряются на высoте 2 м в тени вдали oт зданий и деревьев.
Скoрoсть ветра измеряется на высoте 10 м (на урoвне рoста челoвека скoрoсть ветра ниже в 1.5-2 раза). Если метеoстанция нахoдится в гoрoде или в лесу, тo скoрoсть ветра занижена на 2-4 м/с пo сравнению с oткрытым местoм. Скoрoсть ветра над акватoриями крупных рек и oзёр, а также на вершинах хoлмoв на 2-5 м/с выше, чем в oбычных услoвиях.
Атмoсфернoе давление в разных тoчках местнoсти мoжет значительнo oтличаться oт давления на метеoстанции, в зависимoсти oт услoвий рельефа (при пoдъёме на 10 м давление пoнижается примернo на 1 мм рт.ст.).